Overview Statistics Trail Chart Weather Telemetry Raw packets
 

This is the latest recevied weather packets stored in our database for station/object NB9X. If no packets are shown the sender has not sent any weather packets the latest 10 day(s).

<< 75 76 77 78 79 80 81 >>
Time Temp. Humidity Pressure Rain* Wind** Luminosity Snow
1788109470 33.33° C 100% 1016.3 hPa 0 mm - - -
1788109170 32.78° C 100% 1016.3 hPa 0 mm - - -
1788108870 33.33° C 100% 1016.4 hPa 0 mm - - -
1788108570 35° C 100% 1016.5 hPa 0 mm - - -
1788108270 33.33° C 100% 1016.5 hPa 0 mm - - -
1788107970 33.33° C 100% 1016.5 hPa 0 mm - - -
1788107670 34.44° C 100% 1016.6 hPa 0 mm - - -
1788107370 33.33° C 100% 1016.6 hPa 0 mm - - -
1788107071 32.22° C 100% 1016.7 hPa 0 mm - - -
1788106771 34.44° C 100% 1016.7 hPa 0 mm - - -
1788106471 34.44° C 100% 1016.7 hPa 0 mm - - -
1788106170 34.44° C 100% 1016.7 hPa 0 mm - - -
1788105870 33.89° C 100% 1016.8 hPa 0 mm - - -
1788105570 33.33° C 100% 1016.7 hPa 0 mm - - -
1788105270 32.78° C 100% 1016.9 hPa 0 mm - - -
1788104970 32.22° C 100% 1017 hPa 0 mm - - -
1788104670 31.11° C 100% 1017.1 hPa 0 mm - - -
1788104370 31.11° C 100% 1017.1 hPa 0 mm - - -
1788104071 31.67° C 100% 1017.1 hPa 0 mm - - -
1788103771 31.67° C 100% 1017.1 hPa 0 mm - - -
1788103471 30.56° C 100% 1017 hPa 0 mm - - -
1788103171 30.56° C 100% 1017.1 hPa 0 mm - - -
1788102871 30.56° C 100% 1017.1 hPa 0 mm - - -
1788102571 30° C 100% 1017.1 hPa 0 mm - - -
1788102271 30° C 100% 1017 hPa 0 mm - - -

* Rain latest hour (hover to see other rain measurements)
** Current wind speed in m/s (hover to see current wind gust speed)